Year,Month,Day,Hour,Minute,Value (Times are PST for temperature in C)
2011,05,20,00,00,7.90
2011,05,20,00,01,7.90
2011,05,20,00,02,7.90
2011,05,20,00,03,7.90
2011,05,20,00,04,7.90
2011,05,20,00,05,7.90
2011,05,20,00,06,7.90
2011,05,20,00,07,7.90
2011,05,20,00,08,7.90
2011,05,20,00,09,7.90
2011,05,20,00,10,7.90
2011,05,20,00,11,7.90
2011,05,20,00,12,7.90
2011,05,20,00,13,7.80
2011,05,20,00,14,7.80
2011,05,20,00,15,7.80
2011,05,20,00,16,7.80
2011,05,20,00,17,7.80
2011,05,20,00,18,7.80
2011,05,20,00,19,7.80
2011,05,20,00,20,7.80
2011,05,20,00,21,7.80
2011,05,20,00,22,7.80
2011,05,20,00,23,7.70
2011,05,20,00,24,7.70
2011,05,20,00,25,7.70
2011,05,20,00,26,7.70
2011,05,20,00,27,7.70
2011,05,20,00,28,7.60
2011,05,20,00,29,7.60
2011,05,20,00,30,7.60
2011,05,20,00,31,7.60
2011,05,20,00,32,7.50
2011,05,20,00,33,7.50
2011,05,20,00,34,7.50
2011,05,20,00,35,7.50
2011,05,20,00,36,7.40
2011,05,20,00,37,7.40
2011,05,20,00,38,7.30
2011,05,20,00,39,7.30
2011,05,20,00,40,7.30
2011,05,20,00,41,7.30
2011,05,20,00,42,7.20
2011,05,20,00,43,7.20
2011,05,20,00,44,7.20
2011,05,20,00,45,7.20
2011,05,20,00,46,7.20
2011,05,20,00,47,7.20
2011,05,20,00,48,7.20
2011,05,20,00,49,7.20
2011,05,20,00,50,7.20
2011,05,20,00,51,7.10
2011,05,20,00,52,7.10
2011,05,20,00,53,7.10
2011,05,20,00,54,7.10
2011,05,20,00,55,7.10
2011,05,20,00,56,7.10
2011,05,20,00,57,7.00
2011,05,20,00,58,7.00
2011,05,20,00,59,7.00
2011,05,20,01,00,7.00
2011,05,20,01,01,7.00
2011,05,20,01,02,7.00
2011,05,20,01,03,6.90
2011,05,20,01,04,6.90
2011,05,20,01,05,6.90
2011,05,20,01,06,6.90
2011,05,20,01,07,6.90
2011,05,20,01,08,6.90
2011,05,20,01,09,6.90
2011,05,20,01,10,6.90
2011,05,20,01,11,6.90
2011,05,20,01,12,6.90
2011,05,20,01,13,6.90
2011,05,20,01,14,6.90
2011,05,20,01,15,6.90
2011,05,20,01,16,6.80
2011,05,20,01,17,6.80
2011,05,20,01,18,6.80
2011,05,20,01,19,6.80
2011,05,20,01,20,6.70
2011,05,20,01,21,6.70
2011,05,20,01,22,6.60
2011,05,20,01,23,6.60
2011,05,20,01,24,6.50
2011,05,20,01,25,6.50
2011,05,20,01,26,6.40
2011,05,20,01,27,6.40
2011,05,20,01,28,6.40
2011,05,20,01,29,6.50
2011,05,20,01,30,6.50
2011,05,20,01,31,6.50
2011,05,20,01,32,6.50
2011,05,20,01,33,6.50
2011,05,20,01,34,6.50
2011,05,20,01,35,6.50
2011,05,20,01,36,6.60
2011,05,20,01,37,6.60
2011,05,20,01,38,6.60
2011,05,20,01,39,6.60
2011,05,20,01,40,6.60
2011,05,20,01,41,6.60
2011,05,20,01,42,6.60
2011,05,20,01,43,6.60
2011,05,20,01,44,6.60
2011,05,20,01,45,6.60
2011,05,20,01,46,6.60
2011,05,20,01,47,6.60
2011,05,20,01,48,6.60
2011,05,20,01,49,6.70
2011,05,20,01,50,6.70
2011,05,20,01,51,6.70
2011,05,20,01,52,6.70
2011,05,20,01,53,6.70
2011,05,20,01,54,6.70
2011,05,20,01,55,6.70
2011,05,20,01,56,6.70
2011,05,20,01,57,6.70
2011,05,20,01,58,6.70
2011,05,20,01,59,6.80
2011,05,20,02,00,6.80
2011,05,20,02,01,6.80
2011,05,20,02,02,6.80
2011,05,20,02,03,6.80
2011,05,20,02,04,6.80
2011,05,20,02,05,6.80
2011,05,20,02,06,6.90
2011,05,20,02,07,6.90
2011,05,20,02,08,6.90
2011,05,20,02,09,6.80
2011,05,20,02,10,6.80
2011,05,20,02,11,6.80
2011,05,20,02,12,6.80
2011,05,20,02,13,6.80
2011,05,20,02,14,6.70
2011,05,20,02,15,6.70
2011,05,20,02,16,6.70
2011,05,20,02,17,6.60
2011,05,20,02,18,6.60
2011,05,20,02,19,6.50
2011,05,20,02,20,6.50
2011,05,20,02,21,6.50
2011,05,20,02,22,6.40
2011,05,20,02,23,6.40
2011,05,20,02,24,6.40
2011,05,20,02,25,6.40
2011,05,20,02,26,6.40
2011,05,20,02,27,6.30
2011,05,20,02,28,6.30
2011,05,20,02,29,6.30
2011,05,20,02,30,6.30
2011,05,20,02,31,6.30
2011,05,20,02,32,6.30
2011,05,20,02,33,6.30
2011,05,20,02,34,6.20
2011,05,20,02,35,6.20
2011,05,20,02,36,6.20
2011,05,20,02,37,6.20
2011,05,20,02,38,6.20
2011,05,20,02,39,6.20
2011,05,20,02,40,6.20
2011,05,20,02,41,6.20
2011,05,20,02,42,6.20
2011,05,20,02,43,6.20
2011,05,20,02,44,6.20
2011,05,20,02,45,6.20
2011,05,20,02,46,6.20
2011,05,20,02,47,6.10
2011,05,20,02,48,6.10
2011,05,20,02,49,6.10
2011,05,20,02,50,6.10
2011,05,20,02,51,6.10
2011,05,20,02,52,6.10
2011,05,20,02,53,6.00
2011,05,20,02,54,6.00
2011,05,20,02,55,5.90
2011,05,20,02,56,5.90
2011,05,20,02,57,5.90
2011,05,20,02,58,5.90
2011,05,20,02,59,5.80
2011,05,20,03,00,5.80
2011,05,20,03,01,5.80
2011,05,20,03,02,5.70
2011,05,20,03,06,5.50
2011,05,20,03,07,5.50
2011,05,20,03,08,5.40
2011,05,20,03,09,5.40
2011,05,20,03,10,5.40
2011,05,20,03,11,5.40
2011,05,20,03,12,5.30
2011,05,20,03,13,5.30
2011,05,20,03,14,5.30
2011,05,20,03,15,5.30
2011,05,20,03,16,5.30
2011,05,20,03,17,5.30
2011,05,20,03,18,5.30
2011,05,20,03,19,5.40
2011,05,20,03,20,5.40
2011,05,20,03,21,5.40
2011,05,20,03,22,5.40
2011,05,20,03,23,5.50
2011,05,20,03,24,5.50
2011,05,20,03,25,5.50
2011,05,20,03,26,5.50
2011,05,20,03,27,5.60
2011,05,20,03,28,5.60
2011,05,20,03,29,5.60
2011,05,20,03,30,5.60
2011,05,20,03,31,5.60
2011,05,20,03,32,5.60
2011,05,20,03,33,5.60
2011,05,20,03,34,5.60
2011,05,20,03,35,5.60
2011,05,20,03,36,5.50
2011,05,20,03,37,5.50
2011,05,20,03,38,5.50
2011,05,20,03,39,5.50
2011,05,20,03,40,5.50
2011,05,20,03,41,5.50
2011,05,20,03,42,5.50
2011,05,20,03,43,5.50
2011,05,20,03,44,5.40
2011,05,20,03,45,5.40
2011,05,20,03,46,5.40
2011,05,20,03,47,5.40
2011,05,20,03,48,5.40
2011,05,20,03,49,5.40
2011,05,20,03,50,5.40
2011,05,20,03,51,5.40
2011,05,20,03,52,5.40
2011,05,20,03,53,5.30
2011,05,20,03,54,5.30
2011,05,20,03,55,5.30
2011,05,20,03,56,5.30
2011,05,20,03,57,5.30
2011,05,20,03,58,5.30
2011,05,20,03,59,5.30
2011,05,20,04,00,5.20
2011,05,20,04,01,5.20
2011,05,20,04,02,5.20
2011,05,20,04,03,5.20
2011,05,20,04,04,5.20
2011,05,20,04,05,5.20
2011,05,20,04,06,5.20
2011,05,20,04,07,5.20
2011,05,20,04,08,5.10
2011,05,20,04,09,5.10
2011,05,20,04,10,5.10
2011,05,20,04,11,5.10
2011,05,20,04,12,5.10
2011,05,20,04,13,5.10
2011,05,20,04,14,5.10
2011,05,20,04,15,5.10
2011,05,20,04,16,5.10
2011,05,20,04,17,5.00
2011,05,20,04,18,5.00
2011,05,20,04,19,5.00
2011,05,20,04,20,5.00
2011,05,20,04,21,4.90
2011,05,20,04,22,4.90
2011,05,20,04,23,4.90
2011,05,20,04,24,5.00
2011,05,20,04,25,5.00
2011,05,20,04,26,5.00
2011,05,20,04,27,4.90
2011,05,20,04,28,4.90
2011,05,20,04,29,4.90
2011,05,20,04,30,4.90
2011,05,20,04,31,4.90
2011,05,20,04,32,4.90
2011,05,20,04,33,4.90
2011,05,20,04,34,4.90
2011,05,20,04,35,4.90
2011,05,20,04,36,4.90
2011,05,20,04,37,4.90
2011,05,20,04,38,4.90
2011,05,20,04,39,4.90
2011,05,20,04,40,4.90
2011,05,20,04,41,4.80
2011,05,20,04,42,4.80
2011,05,20,04,43,4.80
2011,05,20,04,44,4.80
2011,05,20,04,45,4.80
2011,05,20,04,46,4.80
2011,05,20,04,47,4.80
2011,05,20,04,48,4.80
2011,05,20,04,49,4.80
2011,05,20,04,50,4.80
2011,05,20,04,51,4.80
2011,05,20,04,52,4.80
2011,05,20,04,53,4.80
2011,05,20,04,54,4.80
2011,05,20,04,55,4.80
2011,05,20,04,56,4.80
2011,05,20,04,57,4.80
2011,05,20,04,58,4.80
2011,05,20,04,59,4.80
2011,05,20,05,00,4.80
2011,05,20,05,01,4.80
2011,05,20,05,02,4.80
2011,05,20,05,03,4.80
2011,05,20,05,04,4.80
2011,05,20,05,05,4.80
2011,05,20,05,06,4.80
2011,05,20,05,07,4.80
2011,05,20,05,08,4.70
2011,05,20,05,09,4.70
2011,05,20,05,10,4.70
2011,05,20,05,11,4.70
2011,05,20,05,12,4.70
2011,05,20,05,13,4.70
2011,05,20,05,14,4.70
2011,05,20,05,15,4.70
2011,05,20,05,16,4.70
2011,05,20,05,17,4.80
2011,05,20,05,18,4.80
2011,05,20,05,19,4.80
2011,05,20,05,20,4.80
2011,05,20,05,21,4.80
2011,05,20,05,22,4.80
2011,05,20,05,23,4.80
2011,05,20,05,24,4.80
2011,05,20,05,25,4.80
2011,05,20,05,26,4.80
2011,05,20,05,27,4.80
2011,05,20,05,28,4.80
2011,05,20,05,29,4.80
2011,05,20,05,30,4.80
2011,05,20,05,31,4.70
2011,05,20,05,32,4.70
2011,05,20,05,33,4.70
2011,05,20,05,34,4.70
2011,05,20,05,35,4.70
2011,05,20,05,36,4.70
2011,05,20,05,37,4.70
2011,05,20,05,38,4.70
2011,05,20,05,39,4.70
2011,05,20,05,40,4.70
2011,05,20,05,41,4.70
2011,05,20,05,42,4.80
2011,05,20,05,43,4.80
2011,05,20,05,44,4.80
2011,05,20,05,45,4.80
2011,05,20,05,46,4.70
2011,05,20,05,47,4.70
2011,05,20,05,48,4.70
2011,05,20,05,49,4.70
2011,05,20,05,50,4.70
2011,05,20,05,51,4.70
2011,05,20,05,52,4.70
2011,05,20,05,53,4.70
2011,05,20,05,54,4.70
2011,05,20,05,55,4.60
2011,05,20,05,56,4.60
2011,05,20,05,57,4.60
2011,05,20,05,58,4.70
2011,05,20,05,59,4.70
2011,05,20,06,00,4.70
2011,05,20,06,01,4.70
2011,05,20,06,02,4.70
2011,05,20,06,03,4.80
2011,05,20,06,04,4.80
2011,05,20,06,05,4.80
2011,05,20,06,06,4.80
2011,05,20,06,07,4.80
2011,05,20,06,08,4.80
2011,05,20,06,09,4.80
2011,05,20,06,10,4.80
2011,05,20,06,11,4.80
2011,05,20,06,12,4.80
2011,05,20,06,13,4.90
2011,05,20,06,14,4.90
2011,05,20,06,15,4.90
2011,05,20,06,16,4.90
2011,05,20,06,17,4.90
2011,05,20,06,18,4.90
2011,05,20,06,19,4.90
2011,05,20,06,20,5.00
2011,05,20,06,21,5.00
2011,05,20,06,22,5.00
2011,05,20,06,23,5.10
2011,05,20,06,24,5.10
2011,05,20,06,25,5.10
2011,05,20,06,26,5.20
2011,05,20,06,27,5.20
2011,05,20,06,28,5.20
2011,05,20,06,29,5.20
2011,05,20,06,30,5.20
2011,05,20,06,31,5.30
2011,05,20,06,32,5.30
2011,05,20,06,33,5.30
2011,05,20,06,34,5.30
2011,05,20,06,35,5.30
2011,05,20,06,36,5.30
2011,05,20,06,37,5.30
2011,05,20,06,38,5.40
2011,05,20,06,39,5.40
2011,05,20,06,40,5.40
2011,05,20,06,41,5.40
2011,05,20,06,42,5.50
2011,05,20,06,43,5.50
2011,05,20,06,44,5.60
2011,05,20,06,45,5.60
2011,05,20,06,46,5.60
2011,05,20,06,47,5.70
2011,05,20,06,48,5.70
2011,05,20,06,49,5.80
2011,05,20,06,50,5.80
2011,05,20,06,51,5.80
2011,05,20,06,52,5.90
2011,05,20,06,53,5.90
2011,05,20,06,54,6.00
2011,05,20,06,55,6.00
2011,05,20,06,56,6.10
2011,05,20,06,57,6.20
2011,05,20,06,58,6.20
2011,05,20,06,59,6.30
2011,05,20,07,00,6.30
2011,05,20,07,01,6.40
2011,05,20,07,02,6.50
2011,05,20,07,03,6.60
2011,05,20,07,04,6.60
2011,05,20,07,05,6.70
2011,05,20,07,06,6.70
2011,05,20,07,07,6.80
2011,05,20,07,08,6.90
2011,05,20,07,09,7.00
2011,05,20,07,10,7.10
2011,05,20,07,11,7.10
2011,05,20,07,12,7.20
2011,05,20,07,13,7.20
2011,05,20,07,14,7.40
2011,05,20,07,15,7.40
2011,05,20,07,16,7.50
2011,05,20,07,17,7.60
2011,05,20,07,18,7.70
2011,05,20,07,19,7.80
2011,05,20,07,20,7.80
2011,05,20,07,21,7.90
2011,05,20,07,22,7.90
2011,05,20,07,23,8.00
2011,05,20,07,24,8.00
2011,05,20,07,25,8.10
2011,05,20,07,26,8.10
2011,05,20,07,27,8.20
2011,05,20,07,28,8.20
2011,05,20,07,29,8.30
2011,05,20,07,30,8.40
2011,05,20,07,31,8.50
2011,05,20,07,32,8.60
2011,05,20,07,33,8.70
2011,05,20,07,34,8.80
2011,05,20,07,35,9.00
2011,05,20,07,36,9.10
2011,05,20,07,37,9.30
2011,05,20,07,38,9.40
2011,05,20,07,39,9.50
2011,05,20,07,40,9.60
2011,05,20,07,41,9.80
2011,05,20,07,42,9.90
2011,05,20,07,43,9.90
2011,05,20,07,44,10.00
2011,05,20,07,45,10.10
2011,05,20,07,46,10.20
2011,05,20,07,47,10.30
2011,05,20,07,48,10.40
2011,05,20,07,49,10.60
2011,05,20,07,50,10.70
2011,05,20,07,51,10.80
2011,05,20,07,52,11.00
2011,05,20,07,53,11.10
2011,05,20,07,54,11.20
2011,05,20,07,55,11.30
2011,05,20,07,56,11.30
2011,05,20,07,57,11.40
2011,05,20,07,58,11.50
2011,05,20,07,59,11.60
2011,05,20,08,00,11.70
2011,05,20,08,01,11.70
2011,05,20,08,02,11.80
2011,05,20,08,03,11.80
2011,05,20,08,04,11.90
2011,05,20,08,05,12.00
2011,05,20,08,06,12.10
2011,05,20,08,07,12.20
2011,05,20,08,08,12.20
2011,05,20,08,09,12.30
2011,05,20,08,10,12.40
2011,05,20,08,11,12.50
2011,05,20,08,12,12.50
2011,05,20,08,13,12.60
2011,05,20,08,14,12.70
2011,05,20,08,15,12.80
2011,05,20,08,16,12.90
2011,05,20,08,17,13.00
2011,05,20,08,18,13.10
2011,05,20,08,19,13.20
2011,05,20,08,20,13.20
2011,05,20,08,21,13.30
2011,05,20,08,22,13.30
2011,05,20,08,23,13.40
2011,05,20,08,24,13.40
2011,05,20,08,25,13.40
2011,05,20,08,26,13.50
2011,05,20,08,27,13.60
2011,05,20,08,28,13.60
2011,05,20,08,29,13.70
2011,05,20,08,30,13.70
2011,05,20,08,31,13.80
2011,05,20,08,32,13.90
2011,05,20,08,33,13.90
2011,05,20,08,34,14.00
2011,05,20,08,35,14.20
2011,05,20,08,36,14.30
2011,05,20,08,37,14.40
2011,05,20,08,38,14.50
2011,05,20,08,39,14.60
2011,05,20,08,40,14.70
2011,05,20,08,41,14.80
2011,05,20,08,42,14.80
2011,05,20,08,43,14.90
2011,05,20,08,44,15.00
2011,05,20,08,45,15.00
2011,05,20,08,46,15.00
2011,05,20,08,47,15.00
2011,05,20,08,48,15.00
2011,05,20,08,49,15.00
2011,05,20,08,50,15.00
2011,05,20,08,51,15.00
2011,05,20,08,52,15.00
2011,05,20,08,53,15.00
2011,05,20,08,54,15.00
2011,05,20,08,55,15.00
2011,05,20,08,56,15.00
2011,05,20,08,57,15.10
2011,05,20,08,58,15.20
2011,05,20,08,59,15.30
2011,05,20,09,00,15.30
2011,05,20,09,01,15.30
2011,05,20,09,02,15.30
2011,05,20,09,03,15.30
2011,05,20,09,04,15.30
2011,05,20,09,05,15.30
2011,05,20,09,06,15.30
2011,05,20,09,07,15.40
2011,05,20,09,08,15.50
2011,05,20,09,09,15.50
2011,05,20,09,10,15.60
2011,05,20,09,11,15.60
2011,05,20,09,12,15.70
2011,05,20,09,13,15.80
2011,05,20,09,14,15.90
2011,05,20,09,15,16.00
2011,05,20,09,16,16.10
2011,05,20,09,17,16.20
2011,05,20,09,18,16.30
2011,05,20,09,19,16.40
2011,05,20,09,20,16.40
2011,05,20,09,21,16.40
2011,05,20,09,22,16.40
2011,05,20,09,23,16.30
2011,05,20,09,24,16.10
2011,05,20,09,25,16.00
2011,05,20,09,26,15.90
2011,05,20,09,27,15.90
2011,05,20,09,28,15.90
2011,05,20,09,29,15.90
2011,05,20,09,30,16.00
2011,05,20,09,31,16.00
2011,05,20,09,32,16.10
2011,05,20,09,33,16.20
2011,05,20,09,34,16.30
2011,05,20,09,35,16.40
2011,05,20,09,36,16.40
2011,05,20,09,37,16.40
2011,05,20,09,38,16.40
2011,05,20,09,39,16.30
2011,05,20,09,40,16.30
2011,05,20,09,41,16.30
2011,05,20,09,42,16.30
2011,05,20,09,43,16.30
2011,05,20,09,44,16.30
2011,05,20,09,45,16.40
2011,05,20,09,46,16.50
2011,05,20,09,47,16.60
2011,05,20,09,48,16.60
2011,05,20,09,49,16.70
2011,05,20,09,50,16.80
2011,05,20,09,51,16.80
2011,05,20,09,52,16.80
2011,05,20,09,53,16.80
2011,05,20,09,54,16.70
2011,05,20,09,55,16.70
2011,05,20,09,56,16.70
2011,05,20,09,57,16.60
2011,05,20,09,58,16.40
2011,05,20,09,59,16.30
2011,05,20,10,00,16.30
2011,05,20,10,01,16.30
2011,05,20,10,02,16.20
2011,05,20,10,03,16.10
2011,05,20,10,04,16.20
2011,05,20,10,05,16.20
2011,05,20,10,06,16.30
2011,05,20,10,07,16.30
2011,05,20,10,08,16.40
2011,05,20,10,09,16.50
2011,05,20,10,10,16.50
2011,05,20,10,11,16.60
2011,05,20,10,12,16.60
2011,05,20,10,13,16.50
2011,05,20,10,14,16.30
2011,05,20,10,15,16.20
2011,05,20,10,16,16.10
2011,05,20,10,17,16.10
2011,05,20,10,18,16.10
2011,05,20,10,19,16.20
2011,05,20,10,20,16.20
2011,05,20,10,21,16.30
2011,05,20,10,22,16.40
2011,05,20,10,23,16.40
2011,05,20,10,24,16.50
2011,05,20,10,25,16.60
2011,05,20,10,26,16.60
2011,05,20,10,27,16.70
2011,05,20,10,28,16.70
2011,05,20,10,29,16.80
2011,05,20,10,30,16.80
2011,05,20,10,31,16.80
2011,05,20,10,32,16.90
2011,05,20,10,33,16.90
2011,05,20,10,34,16.90
2011,05,20,10,35,16.80
2011,05,20,10,36,16.80
2011,05,20,10,37,16.80
2011,05,20,10,38,16.80
2011,05,20,10,39,16.70
2011,05,20,10,40,16.60
2011,05,20,10,41,16.60
2011,05,20,10,42,16.60
2011,05,20,10,43,16.70
2011,05,20,10,44,16.80
2011,05,20,10,45,16.90
2011,05,20,10,46,17.10
2011,05,20,10,47,17.10
2011,05,20,10,48,17.20
2011,05,20,10,49,17.30
2011,05,20,10,50,17.40
2011,05,20,10,51,17.50
2011,05,20,10,52,17.60
2011,05,20,10,53,17.60
2011,05,20,10,54,17.70
2011,05,20,10,55,17.80
2011,05,20,10,56,17.80
2011,05,20,10,57,17.80
2011,05,20,10,58,17.90
2011,05,20,10,59,18.00
2011,05,20,11,00,18.10
2011,05,20,11,01,18.10
2011,05,20,11,02,18.20
2011,05,20,11,03,18.20
2011,05,20,11,04,18.20
2011,05,20,11,05,18.20
2011,05,20,11,06,18.30
2011,05,20,11,07,18.30
2011,05,20,11,08,18.30
2011,05,20,11,09,18.20
2011,05,20,11,10,18.20
2011,05,20,11,11,18.00
2011,05,20,11,12,17.90
2011,05,20,11,13,17.80
2011,05,20,11,14,17.80
2011,05,20,11,15,17.70
2011,05,20,11,16,17.80
2011,05,20,11,17,17.80
2011,05,20,11,18,17.70
2011,05,20,11,19,17.70
2011,05,20,11,20,17.70
2011,05,20,11,21,17.80
2011,05,20,11,22,17.90
2011,05,20,11,23,17.90
2011,05,20,11,24,18.00
2011,05,20,11,25,18.00
2011,05,20,11,26,18.10
2011,05,20,11,27,18.10
2011,05,20,11,28,18.10
2011,05,20,11,29,18.00
2011,05,20,11,30,18.00
2011,05,20,11,31,17.90
2011,05,20,11,32,17.80
2011,05,20,11,33,17.90
2011,05,20,11,34,17.90
2011,05,20,11,35,18.00
2011,05,20,11,36,18.10
2011,05,20,11,37,18.20
2011,05,20,11,38,18.20
2011,05,20,11,39,18.10
2011,05,20,11,40,18.10
2011,05,20,11,41,18.00
2011,05,20,11,42,17.90
2011,05,20,11,43,17.90
2011,05,20,11,44,17.90
2011,05,20,11,45,18.00
2011,05,20,11,46,18.10
2011,05,20,11,47,18.10
2011,05,20,11,48,18.10
2011,05,20,11,49,18.10
2011,05,20,11,50,18.20
2011,05,20,11,51,18.30
2011,05,20,11,52,18.40
2011,05,20,11,53,18.40
2011,05,20,11,54,18.40
2011,05,20,11,55,18.50
2011,05,20,11,56,18.60
2011,05,20,11,57,18.60
2011,05,20,11,58,18.60
2011,05,20,11,59,18.60
2011,05,20,12,00,18.70
2011,05,20,12,01,18.70
2011,05,20,12,02,18.70
2011,05,20,12,03,18.60
2011,05,20,12,04,18.50
2011,05,20,12,05,18.40
2011,05,20,12,06,18.40
2011,05,20,12,07,18.20
2011,05,20,12,08,18.10
2011,05,20,12,09,18.10
2011,05,20,12,10,18.10
2011,05,20,12,11,18.00
2011,05,20,12,12,17.90
2011,05,20,12,13,17.90
2011,05,20,12,14,17.90
2011,05,20,12,15,17.90
2011,05,20,12,16,18.00
2011,05,20,12,17,18.00
2011,05,20,12,18,17.90
2011,05,20,12,19,17.90
2011,05,20,12,20,17.90
2011,05,20,12,21,17.90
2011,05,20,12,22,17.90
2011,05,20,12,23,18.00
2011,05,20,12,24,18.00
2011,05,20,12,25,18.00
2011,05,20,12,26,18.00
2011,05,20,12,27,18.10
2011,05,20,12,28,18.10
2011,05,20,12,29,18.20
2011,05,20,12,30,18.30
2011,05,20,12,31,18.30
2011,05,20,12,32,18.30
2011,05,20,12,33,18.30
2011,05,20,12,34,18.30
2011,05,20,12,35,18.50
2011,05,20,12,36,18.60
2011,05,20,12,37,18.70
2011,05,20,12,38,18.80
2011,05,20,12,39,18.90
2011,05,20,12,40,19.00
2011,05,20,12,41,19.10
2011,05,20,12,42,19.20
2011,05,20,12,43,19.30
2011,05,20,12,44,19.30
2011,05,20,12,45,19.20
2011,05,20,12,46,19.10
2011,05,20,12,47,19.00
2011,05,20,12,48,19.00
2011,05,20,12,49,19.00
2011,05,20,12,50,19.00
2011,05,20,12,51,19.00
2011,05,20,12,52,18.90
2011,05,20,12,53,19.00
2011,05,20,12,54,19.00
2011,05,20,12,55,18.90
2011,05,20,12,56,18.80
2011,05,20,12,57,18.70
2011,05,20,12,58,18.70
2011,05,20,12,59,18.70
2011,05,20,13,00,18.70
2011,05,20,13,01,18.80
2011,05,20,13,02,18.80
2011,05,20,13,03,18.70
2011,05,20,13,04,18.50
2011,05,20,13,05,18.40
2011,05,20,13,06,18.40
2011,05,20,13,07,18.40
2011,05,20,13,08,18.30
2011,05,20,13,09,18.30
2011,05,20,13,10,18.20
2011,05,20,13,11,18.20
2011,05,20,13,12,18.30
2011,05,20,13,13,18.30
2011,05,20,13,14,18.20
2011,05,20,13,15,18.20
2011,05,20,13,16,18.10
2011,05,20,13,17,18.00
2011,05,20,13,18,18.00
2011,05,20,13,19,18.10
2011,05,20,13,20,18.10
2011,05,20,13,21,18.20
2011,05,20,13,22,18.20
2011,05,20,13,23,18.20
2011,05,20,13,24,18.30
2011,05,20,13,25,18.40
2011,05,20,13,26,18.40
2011,05,20,13,27,18.50
2011,05,20,13,28,18.60
2011,05,20,13,29,18.60
2011,05,20,13,30,18.50
2011,05,20,13,31,18.30
2011,05,20,13,32,18.20
2011,05,20,13,33,18.00
2011,05,20,13,34,18.00
2011,05,20,13,35,18.00
2011,05,20,13,36,17.90
2011,05,20,13,37,18.00
2011,05,20,13,38,18.00
2011,05,20,13,39,18.10
2011,05,20,13,40,18.30
2011,05,20,13,41,18.30
2011,05,20,13,42,18.20
2011,05,20,13,43,18.10
2011,05,20,13,44,18.00
2011,05,20,13,45,17.90
2011,05,20,13,46,17.90
2011,05,20,13,47,18.00
2011,05,20,13,48,18.10
2011,05,20,13,49,18.10
2011,05,20,13,50,18.10
2011,05,20,13,51,18.20
2011,05,20,13,52,18.20
2011,05,20,13,53,18.20
2011,05,20,13,54,18.20
2011,05,20,13,55,18.20
2011,05,20,13,56,18.30
2011,05,20,13,57,18.40
2011,05,20,13,58,18.60
2011,05,20,13,59,18.70
2011,05,20,14,00,18.80
2011,05,20,14,01,18.80
2011,05,20,14,02,18.70
2011,05,20,14,03,18.70
2011,05,20,14,04,18.70
2011,05,20,14,05,18.70
2011,05,20,14,06,18.80
2011,05,20,14,07,18.90
2011,05,20,14,08,18.90
2011,05,20,14,09,19.00
2011,05,20,14,10,19.10
2011,05,20,14,11,19.10
2011,05,20,14,12,19.20
2011,05,20,14,13,19.20
2011,05,20,14,14,19.20
2011,05,20,14,15,19.20
2011,05,20,14,16,19.20
2011,05,20,14,17,19.20
2011,05,20,14,18,19.20
2011,05,20,14,19,19.20
2011,05,20,14,20,19.10
2011,05,20,14,21,19.10
2011,05,20,14,22,19.10
2011,05,20,14,23,19.20
2011,05,20,14,24,19.30
2011,05,20,14,25,19.30
2011,05,20,14,26,19.20
2011,05,20,14,27,19.20
2011,05,20,14,28,19.30
2011,05,20,14,29,19.40
2011,05,20,14,30,19.40
2011,05,20,14,31,19.40
2011,05,20,14,32,19.40
2011,05,20,14,33,19.40
2011,05,20,14,34,19.30
2011,05,20,14,35,19.20
2011,05,20,14,36,19.10
2011,05,20,14,37,19.10
2011,05,20,14,38,19.10
2011,05,20,14,39,19.10
2011,05,20,14,40,19.00
2011,05,20,14,41,19.10
2011,05,20,14,42,19.10
2011,05,20,14,43,19.20
2011,05,20,14,44,19.30
2011,05,20,14,45,19.30
2011,05,20,14,46,19.30
2011,05,20,14,47,19.30
2011,05,20,14,48,19.40
2011,05,20,14,49,19.40
2011,05,20,14,50,19.40
2011,05,20,14,51,19.20
2011,05,20,14,52,19.20
2011,05,20,14,53,19.10
2011,05,20,14,54,19.00
2011,05,20,14,55,18.90
2011,05,20,14,56,18.90
2011,05,20,14,57,19.00
2011,05,20,14,58,19.10
2011,05,20,14,59,19.30
2011,05,20,15,00,19.60
2011,05,20,15,01,19.70
2011,05,20,15,02,19.80
2011,05,20,15,03,20.10
2011,05,20,15,04,20.20
2011,05,20,15,05,20.20
2011,05,20,15,06,20.30
2011,05,20,15,07,20.30
2011,05,20,15,08,20.30
2011,05,20,15,09,20.40
2011,05,20,15,10,20.30
2011,05,20,15,11,20.20
2011,05,20,15,12,20.20
2011,05,20,15,13,20.20
2011,05,20,15,14,20.10
2011,05,20,15,15,20.10
2011,05,20,15,16,20.10
2011,05,20,15,17,20.10
2011,05,20,15,18,20.10
2011,05,20,15,19,20.10
2011,05,20,15,20,20.10
2011,05,20,15,21,20.10
2011,05,20,15,22,20.20
2011,05,20,15,23,20.20
2011,05,20,15,24,20.20
2011,05,20,15,25,20.20
2011,05,20,15,26,20.30
2011,05,20,15,27,20.30
2011,05,20,15,28,20.30
2011,05,20,15,29,20.20
2011,05,20,15,30,20.20
2011,05,20,15,31,20.10
2011,05,20,15,32,20.20
2011,05,20,15,33,20.20
2011,05,20,15,34,20.20
2011,05,20,15,35,20.10
2011,05,20,15,36,20.10
2011,05,20,15,37,20.00
2011,05,20,15,38,19.90
2011,05,20,15,39,19.90
2011,05,20,15,40,20.00
2011,05,20,15,41,20.00
2011,05,20,15,42,20.00
2011,05,20,15,43,20.10
2011,05,20,15,44,20.20
2011,05,20,15,45,20.30
2011,05,20,15,46,20.40
2011,05,20,15,47,20.50
2011,05,20,15,48,20.60
2011,05,20,15,49,20.70
2011,05,20,15,50,20.80
2011,05,20,15,51,20.90
2011,05,20,15,52,21.00
2011,05,20,15,53,21.10
2011,05,20,15,54,21.20
2011,05,20,15,55,21.20
2011,05,20,15,56,21.30
2011,05,20,15,57,21.30
2011,05,20,15,58,21.30
2011,05,20,15,59,21.30
2011,05,20,16,00,21.30
2011,05,20,16,01,21.20
2011,05,20,16,02,21.20
2011,05,20,16,03,21.20
2011,05,20,16,04,21.10
2011,05,20,16,05,21.10
2011,05,20,16,06,21.00
2011,05,20,16,07,20.90
2011,05,20,16,08,20.90
2011,05,20,16,09,20.80
2011,05,20,16,10,20.80
2011,05,20,16,11,20.80
2011,05,20,16,12,20.90
2011,05,20,16,13,20.90
2011,05,20,16,14,21.00
2011,05,20,16,15,21.10
2011,05,20,16,16,21.10
2011,05,20,16,17,21.10
2011,05,20,16,18,21.00
2011,05,20,16,19,20.90
2011,05,20,16,20,20.80
2011,05,20,16,21,20.70
2011,05,20,16,22,20.70
2011,05,20,16,23,20.70
2011,05,20,16,24,20.70
2011,05,20,16,25,20.70
2011,05,20,16,26,20.80
2011,05,20,16,27,20.80
2011,05,20,16,28,20.80
2011,05,20,16,29,20.90
2011,05,20,16,30,20.80
2011,05,20,16,31,20.80
2011,05,20,16,32,20.80
2011,05,20,16,33,20.80
2011,05,20,16,34,20.70
2011,05,20,16,35,20.70
2011,05,20,16,36,20.70
2011,05,20,16,37,20.70
2011,05,20,16,38,20.70
2011,05,20,16,39,20.70
2011,05,20,16,40,20.60
2011,05,20,16,41,20.60
2011,05,20,16,42,20.50
2011,05,20,16,43,20.50
2011,05,20,16,44,20.50
2011,05,20,16,45,20.50
2011,05,20,16,46,20.60
2011,05,20,16,47,20.70
2011,05,20,16,48,20.80
2011,05,20,16,49,20.80
2011,05,20,16,50,20.90
2011,05,20,16,51,20.80
2011,05,20,16,52,20.80
2011,05,20,16,53,20.90
2011,05,20,16,54,20.90
2011,05,20,16,55,21.00
2011,05,20,16,56,20.90
2011,05,20,16,57,20.90
2011,05,20,16,58,20.90
2011,05,20,16,59,20.90
2011,05,20,17,00,21.00
2011,05,20,17,01,21.10
2011,05,20,17,02,21.10
2011,05,20,17,03,21.00
2011,05,20,17,04,20.90
2011,05,20,17,05,20.90
2011,05,20,17,06,20.80
2011,05,20,17,07,20.80
2011,05,20,17,08,20.70
2011,05,20,17,09,20.70
2011,05,20,17,10,20.70
2011,05,20,17,11,20.70
2011,05,20,17,12,20.70
2011,05,20,17,13,20.60
2011,05,20,17,14,20.60
2011,05,20,17,15,20.50
2011,05,20,17,16,20.50
2011,05,20,17,17,20.50
2011,05,20,17,18,20.40
2011,05,20,17,19,20.40
2011,05,20,17,20,20.30
2011,05,20,17,21,20.30
2011,05,20,17,22,20.30
2011,05,20,17,23,20.20
2011,05,20,17,24,20.20
2011,05,20,17,25,20.20
2011,05,20,17,26,20.20
2011,05,20,17,27,20.20
2011,05,20,17,28,20.20
2011,05,20,17,29,20.20
2011,05,20,17,30,20.20
2011,05,20,17,31,20.30
2011,05,20,17,32,20.30
2011,05,20,17,33,20.40
2011,05,20,17,34,20.50
2011,05,20,17,35,20.60
2011,05,20,17,36,20.70
2011,05,20,17,37,20.70
2011,05,20,17,38,20.70
2011,05,20,17,39,20.60
2011,05,20,17,40,20.60
2011,05,20,17,41,20.50
2011,05,20,17,42,20.40